DW3765 Weather Reports


Display with metric or nautical units.
time (UTC)temp
F
wind
direction
speed
MPH
gust
MPH
rain 1hr
in
rain 24hr
in
rain mn
in
humidity
%
barometer
mb
20200219095145 50 360 6.0 13.0 0.00 0.00 0.00 85 1021.9
20200219094655 50 360 7.0 15.0 0.00 0.00 0.00 85 1021.8
20200219094208 50 22 7.0 18.0 0.00 0.00 0.00 84 1021.8
20200219093630 50 5 9.0 22.0 0.00 0.00 0.00 84 1021.7
20200219093151 50 9 8.0 22.0 0.00 0.00 0.00 84 1021.5
20200219092715 50 23 7.0 14.0 0.00 0.00 0.00 84 1021.4
20200219092217 50 5 8.0 14.0 0.00 0.00 0.00 84 1021.6
20200219091717 50 11 8.0 18.0 0.00 0.00 0.00 84 1021.7
20200219091135 50 5 9.0 18.0 0.00 0.00 0.00 83 1021.8
20200219090632 50 328 7.0 13.0 0.00 0.00 0.00 83 1021.8
20200219090142 50 19 9.0 21.0 0.00 0.00 0.00 83 1021.8
20200219085650 50 348 11.0 21.0 0.00 0.00 0.00 83 1021.7
20200219085151 50 303 6.0 20.0 0.00 0.00 0.00 83 1021.5
20200219084710 50 343 9.0 20.0 0.00 0.00 0.00 83 1021.5
20200219084218 50 346 7.0 19.0 0.00 0.00 0.00 83 1021.5
20200219083636 50 13 11.0 19.0 0.00 0.00 0.00 83 1021.5
20200219083145 50 12 9.0 19.0 0.00 0.00 0.00 82 1021.6
20200219082123 51 61 10.0 18.0 0.00 0.00 0.00 82 1021.9
20200219081644 51 45 9.0 16.0 0.00 0.00 0.00 82 1021.8
20200219081149 51 17 8.0 18.0 0.00 0.00 0.00 82 1021.8
20200219080710 51 338 10.0 18.0 0.00 0.00 0.00 82 1021.8
20200219080123 51 26 7.0 21.0 0.00 0.00 0.00 81 1021.8
20200219075633 51 347 10.0 21.0 0.00 0.00 0.00 81 1021.9
20200219075131 51 5 7.0 20.0 0.00 0.00 0.00 81 1022.0
20200219074640 51 19 9.0 20.0 0.00 0.00 0.00 81 1021.9
20200219074126 51 290 8.0 16.0 0.00 0.00 0.00 81 1021.9
20200219073638 51 355 8.0 20.0 0.00 0.00 0.00 81 1021.9
20200219073137 51 355 9.0 20.0 0.00 0.00 0.00 80 1022.0
20200219072627 51 18 9.0 16.0 0.00 0.00 0.00 80 1022.0
20200219072137 51 331 11.0 16.0 0.00 0.00 0.00 80 1022.0
20200219071641 51 11 8.0 22.0 0.00 0.00 0.00 80 1021.9
20200219071130 51 29 12.0 22.0 0.00 0.00 0.00 80 1021.8
20200219070641 51 17 9.0 18.0 0.00 0.00 0.00 80 1021.7
20200219070122 51 5 9.0 18.0 0.00 0.00 0.00 80 1021.8
20200219065631 51 348 11.0 21.0 0.00 0.00 0.00 80 1021.9
20200219065142 51 339 12.0 21.0 0.00 0.00 0.00 80 1021.9
20200219064623 51 349 7.0 16.0 0.00 0.00 0.00 80 1021.9
20200219064136 51 337 10.0 16.0 0.00 0.00 0.00 80 1022.0
20200219063646 51 5 9.0 21.0 0.00 0.00 0.00 80 1022.1
20200219063126 51 330 9.0 21.0 0.00 0.00 0.00 81 1022.1
20200219062638 51 13 8.0 19.0 0.00 0.00 0.00 81 1022.1
20200219062147 50 16 9.0 19.0 0.00 0.00 0.00 81 1022.0
20200219061629 50 340 8.0 16.0 0.00 0.00 0.00 81 1022.2
20200219061131 50 342 8.0 16.0 0.00 0.00 0.00 81 1022.3
20200219060639 50 5 8.0 14.0 0.00 0.00 0.00 81 1022.3
20200219060150 50 325 7.0 14.0 0.00 0.00 0.00 81 1022.4
20200219055632 50 335 9.0 21.0 0.00 0.00 0.00 81 1022.5
20200219055157 50 339 7.0 21.0 0.00 0.00 0.00 81 1022.3
20200219054140 50 22 7.0 18.0 0.00 0.00 0.00 81 1022.5
20200219053707 50 9 7.0 14.0 0.00 0.00 0.00 81 1022.4
20200219053204 50 335 5.0 14.0 0.00 0.00 0.00 81 1022.3
20200219052717 50 5 7.0 14.0 0.00 0.00 0.00 80 1022.3
20200219052215 50 23 8.0 19.0 0.00 0.00 0.00 80 1022.3
20200219051628 50 355 9.0 19.0 0.00 0.00 0.00 80 1022.3
20200219051156 50 355 9.0 19.0 0.00 0.00 0.00 80 1022.2
20200219050711 51 5 9.0 19.0 0.00 0.00 0.00 80 1022.3
20200219050211 51 17 11.0 21.0 0.00 0.00 0.00 79 1022.0
20200219045632 51 336 12.0 21.0 0.00 0.00 0.00 79 1022.0
20200219045153 51 355 7.0 21.0 0.00 0.00 0.00 79 1022.2
20200219044653 51 10 11.0 21.0 0.00 0.00 0.00 78 1022.2
20200219044152 51 15 9.0 19.0 0.00 0.00 0.00 78 1022.2
20200219043716 51 360 9.0 16.0 0.00 0.00 0.00 77 1022.2
20200219043214 51 10 7.0 22.0 0.00 0.00 0.00 77 1022.0
20200219042623 51 41 7.0 22.0 0.00 0.00 0.00 76 1022.0
20200219042124 51 5 12.0 23.0 0.00 0.00 0.00 75 1022.0
20200219041648 51 24 10.0 23.0 0.00 0.00 0.00 75 1022.0
20200219040637 52 9 12.0 23.0 0.00 0.00 0.00 74 1022.2
20200219035635 52 337 12.0 29.0 0.00 0.00 0.00 74 1022.0
20200219035155 52 5 15.0 29.0 0.00 0.00 0.00 74 1022.0
20200219034703 52 5 10.0 22.0 0.00 0.00 0.00 74 1022.0
20200219034216 52 346 11.0 21.0 0.00 0.00 0.00 74 1021.9
20200219033625 52 346 11.0 23.0 0.00 0.00 0.00 74 1022.0
20200219033150 52 349 13.0 30.0 0.00 0.00 0.00 74 1021.9
20200219032647 52 12 15.0 30.0 0.00 0.00 0.00 74 1021.9
20200219031632 51 9 15.0 30.0 0.00 0.00 0.00 76 1021.9
20200219031156 51 344 10.0 22.0 0.00 0.00 0.00 77 1021.9
20200219030715 51 355 12.0 22.0 0.00 0.00 0.00 78 1021.9
20200219030127 51 355 8.0 21.0 0.00 0.00 0.00 79 1021.9
20200219025653 51 340 8.0 21.0 0.00 0.00 0.00 80 1021.7
20200219025208 51 355 10.0 20.0 0.00 0.00 0.00 80 1021.7
20200219024635 51 355 11.0 20.0 0.00 0.00 0.00 81 1021.6
20200219024154 51 32 9.0 21.0 0.00 0.00 0.00 81 1021.5
20200219023710 51 342 10.0 23.0 0.00 0.00 0.00 81 1021.2
20200219023217 51 346 9.0 23.0 0.00 0.00 0.00 81 1021.1
20200219022630 51 340 12.0 25.0 0.00 0.00 0.00 81 1021.0
20200219022151 52 351 12.0 23.0 0.00 0.00 0.00 81 1021.3
20200219021232 52 360 12.0 26.0 0.00 0.00 0.00 81 1021.1
20200219020652 52 306 15.0 24.0 0.00 0.00 0.00 82 1020.7
20200219020204 52 26 14.0 25.0 0.00 0.00 0.00 82 1020.8
20200219015622 52 347 13.0 25.0 0.00 0.00 0.00 83 1020.9
20200219015146 52 5 9.0 16.0 0.00 0.00 0.00 83 1020.8
20200219014647 52 337 8.0 18.0 0.00 0.00 0.00 84 1020.8
20200219013636 52 305 10.0 21.0 0.00 0.00 0.00 84 1020.6
20200219012630 51 56 11.0 27.0 0.00 0.00 0.00 84 1020.1
20200219012129 51 321 13.0 27.0 0.00 0.00 0.00 85 1019.8
20200219011628 51 22 13.0 24.0 0.00 0.00 0.00 85 1019.8
20200219011134 52 355 10.0 24.0 0.00 0.00 0.00 86 1019.7
20200219010657 52 355 11.0 24.0 0.00 0.00 0.00 86 1019.6
20200219010212 52 19 9.0 24.0 0.00 0.00 0.00 86 1019.8
20200219005625 52 341 11.0 24.0 0.00 0.00 0.00 86 1019.9
20200219005239 52 5 12.0 24.0 0.00 0.00 0.00 86 1019.7
20200219004730 52 14 12.0 23.0 0.00 0.00 0.00 86 1019.8
20200219004150 52 338 9.0 18.0 0.00 0.00 0.00 86 1019.6
20200219003144 52 355 8.0 18.0 0.00 0.00 0.00 87 1019.4
20200219002658 52 5 10.0 23.0 0.00 0.00 0.00 87 1019.3
20200219002158 52 316 11.0 23.0 0.00 0.00 0.00 87 1019.1
20200219001147 52 5 10.0 20.0 0.00 0.00 0.00 87 1018.8
20200219000656 52 5 9.0 20.0 0.00 0.00 0.00 87 1018.8
20200219000156 52 355 11.0 22.0 0.00 0.00 0.00 87 1018.7
20200218235710 52 35 12.0 26.0 0.00 0.00 0.00 87 1018.5
20200218235207 52 16 13.0 22.0 0.00 0.00 0.00 88 1018.6
20200218234625 53 329 11.0 24.0 0.00 0.00 0.00 88 1018.5
20200218234152 53 322 13.0 24.0 0.00 0.00 0.00 88 1018.3
20200218233140 53 341 10.0 25.0 0.00 0.00 0.00 88 1018.1
20200218232655 54 5 8.0 25.0 0.00 0.00 0.00 88 1018.1
20200218232239 54 35 9.0 25.0 0.00 0.00 0.00 88 1018.0
20200218231735 54 360 13.0 25.0 0.00 0.00 0.00 88 1017.9
20200218231123 54 327 15.0 23.0 0.00 0.00 0.00 88 1017.9
20200218230638 55 348 10.0 23.0 0.00 0.00 0.00 88 1017.7
20200218230137 55 333 12.0 23.0 0.00 0.00 0.00 88 1017.6
20200218225646 56 19 11.0 25.0 0.00 0.00 0.00 88 1017.5
20200218224742 57 330 14.0 29.0 0.00 0.00 0.00 89 1017.3
20200218224139 57 5 12.0 24.0 0.00 0.00 0.00 89 1017.2
20200218223658 58 344 10.0 24.0 0.00 0.00 0.00 89 1017.3
20200218223201 58 25 13.0 28.0 0.00 0.00 0.00 88 1017.0
20200218222700 58 340 10.0 25.0 0.00 0.00 0.00 88 1016.9
20200218222145 58 349 10.0 22.0 0.00 0.00 0.00 88 1016.7
20200218221625 59 360 10.0 23.0 0.00 0.00 0.00 89 1016.6
20200218221228 59 350 13.0 23.0 0.00 0.00 0.00 89 1016.6
20200218220714 60 347 12.0 23.0 0.00 0.00 0.00 89 1016.4
20200218220225 60 325 10.0 23.0 0.00 0.00 0.00 89 1016.4
20200218215719 60 22 10.0 23.0 0.00 0.00 0.00 89 1016.4
20200218215146 60 5 11.0 21.0 0.00 0.00 0.00 89 1016.4
20200218214655 61 347 11.0 21.0 0.00 0.00 0.00 89 1016.4
20200218214155 61 338 12.0 20.0 0.00 0.00 0.00 89 1016.2
20200218213648 61 360 11.0 18.0 0.00 0.00 0.00 90 1016.2
20200218213210 61 351 10.0 21.0 0.00 0.00 0.00 90 1016.1
20200218212704 61 360 9.0 23.0 0.00 0.00 0.00 90 1015.9
20200218212204 61 37 14.0 27.0 0.00 0.00 0.00 90 1016.1
20200218211703 62 5 14.0 27.0 0.00 0.00 0.00 90 1015.9
20200218211203 62 41 11.0 19.0 0.00 0.00 0.00 90 1015.7
20200218210702 62 345 10.0 20.0 0.00 0.00 0.00 90 1015.6
20200218210215 63 44 9.0 20.0 0.00 0.00 0.00 91 1015.5
20200218205653 63 341 9.0 21.0 0.00 0.00 0.00 91 1015.4
20200218205215 63 18 13.0 21.0 0.00 0.00 0.00 90 1015.4
20200218204714 63 15 12.0 21.0 0.00 0.00 0.00 90 1015.3
20200218204216 64 344 8.0 20.0 0.00 0.00 0.00 90 1015.3
20200218203126 65 24 9.0 19.0 0.00 0.00 0.00 90 1015.3
20200218202647 65 11 7.0 22.0 0.00 0.00 0.00 89 1015.2
20200218202148 66 25 9.0 20.0 0.00 0.00 0.00 89 1015.2
20200218201647 67 5 12.0 20.0 0.00 0.00 0.00 88 1015.0
20200218200645 70 355 7.0 15.0 0.00 0.00 0.00 91 1014.7
20200218200157 70 45 8.0 15.0 0.00 0.00 0.00 91 1014.7
20200218195712 70 5 8.0 13.0 0.00 0.00 0.00 91 1014.9
20200218195138 70 24 8.0 13.0 0.00 0.00 0.00 91 1014.9
20200218194657 71 5 5.0 10.0 0.00 0.00 0.00 91 1015.0
20200218194157 71 355 6.0 11.0 0.00 0.00 0.00 91 1015.0
20200218193144 71 355 5.0 7.0 0.00 0.00 0.00 91 1015.1
20200218192703 71 22 5.0 7.0 0.00 0.00 0.00 90 1015.2
20200218192127 71 22 4.0 9.0 0.00 0.00 0.00 90 1015.1
20200218191641 71 36 5.0 9.0 0.00 0.00 0.00 89 1015.2
20200218191156 71 32 4.0 9.0 0.00 0.00 0.00 89 1015.2
20200218190148 72 26 5.0 8.0 0.00 0.00 0.00 88 1015.3
20200218185149 72 40 4.0 7.0 0.00 0.00 0.00 88 1015.2
20200218184137 72 44 4.0 7.0 0.00 0.00 0.00 88 1015.2
20200218183701 72 65 4.0 8.0 0.00 0.00 0.00 87 1015.2
20200218183221 72 51 4.0 7.0 0.00 0.00 0.00 87 1015.3
20200218182638 72 32 3.0 6.0 0.00 0.00 0.00 88 1015.5
20200218181714 72 106 2.0 6.0 0.00 0.00 0.00 88 1015.5
20200218181210 72 106 1.0 6.0 0.00 0.00 0.00 88 1015.6
20200218180721 72 106 4.0 6.0 0.00 0.00 0.00 89 1015.7
20200218180144 71 115 3.0 6.0 0.00 0.00 0.00 89 1015.8
20200218175658 71 128 3.0 5.0 0.00 0.00 0.00 89 1015.9
20200218174641 71 125 3.0 7.0 0.00 0.00 0.00 90 1016.1
20200218174155 71 88 3.0 7.0 0.00 0.00 0.00 91 1016.0
20200218173133 71 86 4.0 7.0 0.00 0.00 0.00 92 1015.8
20200218172653 70 94 4.0 7.0 0.00 0.00 0.00 92 1015.9
20200218172154 70 53 2.0 6.0 0.00 0.00 0.00 92 1015.9
20200218171134 70 84 3.0 7.0 0.00 0.00 0.00 93 1015.9
20200218170658 70 108 1.0 7.0 0.00 0.00 0.00 93 1015.9
20200218170155 70 94 3.0 6.0 0.00 0.00 0.00 93 1015.7
20200218165220 70 108 4.0 8.0 0.00 0.00 0.00 93 1015.5
20200218164720 70 87 5.0 9.0 0.00 0.00 0.00 94 1015.4
20200218164124 70 101 6.0 9.0 0.00 0.00 0.00 94 1015.4
20200218163622 69 89 3.0 8.0 0.00 0.00 0.00 94 1015.4
20200218163141 69 86 5.0 7.0 0.00 0.00 0.00 94 1015.4
20200218162656 69 105 4.0 7.0 0.00 0.00 0.00 94 1015.3
20200218162205 69 86 4.0 7.0 0.00 0.00 0.00 94 1015.3
20200218161718 69 71 3.0 6.0 0.00 0.00 0.00 95 1015.4
20200218161135 69 88 1.0 5.0 0.00 0.00 0.00 95 1015.6
20200218160657 69 88 3.0 5.0 0.00 0.00 0.00 95 1015.5
20200218160142 69 156 3.0 7.0 0.00 0.00 0.00 95 1015.3
20200218155654 69 82 3.0 7.0 0.00 0.00 0.00 95 1015.0
20200218154633 68 90 4.0 7.0 0.00 0.00 0.00 95 1015.0
20200218154148 68 101 4.0 6.0 0.00 0.00 0.00 95 1015.0
20200218153643 68 104 4.0 6.0 0.00 0.00 0.00 95 1015.0
20200218153127 68 98 2.0 6.0 0.00 0.00 0.00 95 1015.1
20200218152628 68 99 4.0 6.0 0.00 0.00 0.00 95 1015.1
20200218152155 68 107 4.0 6.0 0.00 0.00 0.00 95 1015.1
20200218151648 68 109 2.0 6.0 0.00 0.00 0.00 94 1015.1
20200218151152 68 111 3.0 6.0 0.00 0.00 0.00 94 1015.1
20200218150140 68 127 4.0 5.0 0.00 0.00 0.00 94 1015.0
20200218145658 68 324 4.0 5.0 0.00 0.00 0.00 94 1015.0
20200218145158 68 134 2.0 3.0 0.00 0.00 0.00 94 1014.8
20200218144144 68 94 2.0 4.0 0.00 0.00 0.00 94 1014.7
20200218143657 68 94 2.0 5.0 0.00 0.00 0.00 94 1014.5
20200218142717 68 76 2.0 5.0 0.00 0.00 0.00 94 1014.1
20200218142203 68 76 3.0 5.0 0.00 0.00 0.00 94 1014.0
20200218141658 68 68 1.0 5.0 0.00 0.00 0.00 94 1013.9
20200218141153 68 71 4.0 5.0 0.00 0.00 0.00 94 1013.6
20200218140711 68 171 2.0 4.0 0.00 0.00 0.00 94 1013.8
20200218140123 68 171 2.0 2.0 0.00 0.00 0.00 94 1013.7
20200218135721 68 171 1.0 2.0 0.00 0.01 0.00 94 1013.7
20200218135213 68 171 1.0 2.0 0.00 0.01 0.00 94 1013.7
20200218134622 68 171 0.0 2.0 0.00 0.01 0.00 95 1013.6
20200218134150 68 171 0.0 5.0 0.00 0.01 0.00 95 1013.4
20200218133650 68 171 3.0 6.0 0.00 0.01 0.00 95 1013.3
20200218133136 68 324 3.0 5.0 0.00 0.01 0.00 95 1013.2
20200218132651 68 324 2.0 3.0 0.00 0.01 0.00 95 1013.1
20200218132151 68 324 1.0 2.0 0.00 0.01 0.00 95 1013.1
20200218131715 68 324 1.0 2.0 0.00 0.01 0.00 95 1012.9
20200218131214 68 324 1.0 6.0 0.00 0.01 0.00 95 1012.9
20200218130713 68 324 3.0 7.0 0.00 0.01 0.00 95 1012.6
20200218125645 68 313 5.0 11.0 0.00 0.01 0.00 95 1012.4
20200218125145 68 163 7.0 11.0 0.00 0.01 0.00 95 1011.9
20200218124132 68 154 5.0 12.0 0.00 0.01 0.00 95 1012.0
20200218123653 68 144 9.0 12.0 0.00 0.01 0.00 95 1011.9
20200218123153 68 161 3.0 5.0 0.00 0.01 0.00 95 1012.3
20200218122141 68 296 1.0 7.0 0.00 0.01 0.00 95 1012.2
20200218121627 67 271 2.0 12.0 0.00 0.01 0.00 95 1012.1
20200218121148 67 144 8.0 11.0 0.00 0.01 0.00 95 1011.5
20200218120128 67 157 6.0 8.0 0.00 0.01 0.00 95 1011.7
20200218115647 67 136 3.0 8.0 0.00 0.01 0.00 95 1011.9
20200218115152 67 163 5.0 7.0 0.00 0.01 0.00 95 1011.8
20200218114145 67 175 3.0 9.0 0.00 0.01 0.00 95 1012.0
20200218113652 67 157 6.0 9.0 0.00 0.01 0.00 95 1011.7
20200218113151 67 147 3.0 11.0 0.00 0.01 0.00 95 1011.5
20200218112715 67 147 3.0 14.0 0.00 0.01 0.00 95 1011.6
20200218112214 67 119 9.0 14.0 0.00 0.01 0.00 95 1011.3
20200218111623 67 123 3.0 9.0 0.00 0.01 0.00 95 1011.7
20200218111146 67 169 4.0 10.0 0.00 0.01 0.00 95 1011.7
20200218110708 67 146 7.0 10.0 0.00 0.01 0.00 95 1011.7
20200218110122 67 181 5.0 9.0 0.00 0.01 0.00 95 1012.0
20200218105646 67 196 2.0 5.0 0.00 0.01 0.00 94 1011.7
20200218105159 67 234 0.0 8.0 0.00 0.01 0.00 95 1011.8
20200218104715 67 190 2.0 10.0 0.00 0.01 0.00 94 1011.9
20200218104214 67 150 6.0 10.0 0.00 0.01 0.00 94 1011.2
20200218103632 67 140 6.0 10.0 0.00 0.01 0.00 94 1011.3
20200218103152 67 145 5.0 8.0 0.00 0.01 0.00 94 1011.5
20200218102716 67 166 4.0 6.0 0.00 0.01 0.00 94 1011.6
20200218102206 67 166 4.0 6.0 0.00 0.01 0.00 94 1011.4
20200218101709 67 151 4.0 7.0 0.00 0.01 0.00 94 1011.3
20200218101122 67 145 4.0 8.0 0.00 0.01 0.00 94 1011.2
20200218100635 67 118 3.0 8.0 0.00 0.01 0.00 94 1011.2
20200218100148 67 150 3.0 6.0 0.00 0.01 0.00 94 1011.1
20200218095709 67 143 4.0 8.0 0.00 0.02 0.00 94 1011.0